Voltar ao catálogo

COSMOS 2009

AtivoMilitarLEO
NORAD 19903·PAYLOAD·🇷🇺 Russia

Lançado Mar 24, 1989 de Plesetsk Cosmodrome

Loading…

Próximas Passagens (próximas 24 horas)

TLE

AtualizadoSource: Space-Track

Época: Sep 14, 2026, 13:07 UTC

1 19903U 89025B   26257.54699610  .00000005  00000-0  12963-3 0  9997
2 19903  74.0142 343.5365 0041475 216.9618 154.1624 12.55950360718189

Acompanhe COSMOS 2009 em tempo real com AllMySat

Download on the App Store